This demonstration page uses our WeatherBlox Daily Observations layout. Learn more.

Left ArrowRight Arrow

39.92423, -83.80882

Hourly Observations for September 30, 2022

Temp ( °F °C ) Dew Point ( °F °C ) Humidity (%) Winds ( mph kmh ) Pressure ( in mb ) Visibility ( mi km ) Precip ( " mm )
12:56 am 00:56 Clear 42 5.6 N/A N/A E 7 11 30.35 1028 10 16 0.00 0.00
1:56 am 01:56 Clear 40 4.4 N/A N/A ENE 5 7 30.33 1027 10 16 0.00 0.00
2:56 am 02:56 Clear N/A N/A N/A ENE 6 9 30.36 1028 10 16 0.00 0.00
3:56 am 03:56 Clear N/A N/A N/A NE 6 9 30.34 1028 10 16 0.00 0.00
4:56 am 04:56 Clear N/A N/A N/A ENE 5 7 30.34 1028 10 16 0.00 0.00
5:56 am 05:56 Clear 39 3.9 N/A N/A NE 6 9 30.30 1026 10 16 0.00 0.00
6:56 am 06:56 Clear N/A N/A N/A NNE 3 6 30.34 1028 10 16 0.00 0.00
7:56 am 07:56 Sunny 40 4.4 N/A N/A NE 5 7 30.31 1027 10 16 0.00 0.00
8:56 am 08:56 Sunny 48 8.9 48 8.9 100 100 NE 9 15 30.31 1026 10 16 0.00 0.00
9:56 am 09:56 Sunny 53 11.7 48 8.9 83 83 ENE 9 15 30.30 1026 10 16 0.00 0.00
10:56 am 10:56 Sunny 59 15 47 8.3 64 64 E 10 17 30.29 1026 10 16 0.00 0.00
11:56 am 11:56 Sunny 62 16.7 46 7.8 56 56 E 13 20 30.27 1025 10 16 0.00 0.00
12:56 pm 12:56 Sunny 65 18.3 46 7.8 50 50 NE 14 22 30.25 1024 10 16 0.00 0.00
1:56 pm 13:56 Sunny 67 19.4 44 6.7 44 44 NE 15 24 30.22 1023 10 16 0.00 0.00
2:56 pm 14:56 Sunny 68 20 45 7.2 43 43 NNE 15 24 30.14 1021 10 16 0.00 0.00
3:56 pm 15:56 Sunny 69 20.6 43 6.1 39 39 NNE 13 20 30.12 1020 10 16 0.00 0.00
4:56 pm 16:56 Sunny 69 20.6 43 6.1 39 39 NNE 15 24 30.09 1019 10 16 0.00 0.00
5:56 pm 17:56 Sunny 67 19.4 44 6.7 44 44 ENE 14 22 30.12 1020 10 16 0.00 0.00
6:56 pm 18:56 Sunny 62 16.7 38 3.3 41 41 ENE 15 24 30.11 1019 10 16 0.00 0.00
7:56 pm 19:56 Clear 53 11.7 37 2.8 54 54 ENE 8 13 30.13 1020 10 16 0.00 0.00
8:56 pm 20:56 Clear 50 10 38 3.3 63 63 ENE 8 13 30.12 1020 10 16 0.00 0.00
9:56 pm 21:56 Clear 49 9.4 38 3.3 66 66 NE 7 11 30.11 1020 10 16 0.00 0.00
10:56 pm 22:56 Clear 52 11.1 40 4.4 63 63 NE 10 17 30.10 1019 10 16 0.00 0.00
11:56 pm 23:56 Clear 51 10.6 40 4.4 65 65 NE 9 15 30.10 1019 10 16 0.00 0.00

Powered by AerisWeather